Weather History for Pinedale, WY

Change the Weather History Date:

Tuesday, April 9, 2013

  Actual Average (KBPI) Record (KBPI)
Temperature  
Mean Temperature 28 °F 36 °F  
Max Temperature 35 °F 51 °F 70 °F (1996)
Min Temperature 21 °F 21 °F 8 °F (2001)
Degree Days  
Heating Degree Days 37 30  
Month to date heating degree days 276  
Since 1 July heating degree days 8971  
Cooling Degree Days 0 0  
Month to date cooling degree days 0  
Year to date cooling degree days 0  
Moisture  
Dew Point 11 °F    
Average Humidity 52    
Maximum Humidity 93    
Minimum Humidity 34    
Precipitation  
Precipitation 0.00 in 0.02 in 0.69 in (2004)
Month to date precipitation 0.15  
Year to date precipitation 1.25  
Sea Level Pressure  
Sea Level Pressure 29.90 in    
Wind  
Wind Speed 11 mph (ENE)    
Max Wind Speed 22 mph    
Max Gust Speed 29 mph    
Visibility 10 miles    
Events      
T = Trace of Precipitation, MM = Missing Value Source: NWS Daily Summary

Daily Weather History Graph

Daily Weather History Graph

Search for Another Location

Airport:

Trip Planner

Search our weather history database for the weather conditions in past years. The results will help you decide how hot, cold, wet, or windy it might be!

Date:

Astronomy

Apr. 09, 2013 Rise Set
Actual Time 6:47 AM MDT 7:54 PM MDT
Civil Twilight 6:18 AM MDT 8:24 PM MDT
Nautical Twilight 5:43 AM MDT 8:58 PM MDT
Astronomical Twilight 5:07 AM MDT 9:35 PM MDT
Moon 6:12 AM MDT (4/9) 7:34 PM MDT (4/9)
Length of Visible Light 14h 05m
Length of Day
13h 07m
Waning Crescent, 0% of the Moon is Illuminated
Apr 9
Waning Crescent
Apr 10
New
Apr 18
First Quarter
Apr 25
Full
May 2
Last Quarter

Hourly Weather History & Observations

Time (MDT) Temp. Windchill Dew Point Humidity Pressure Visibility Wind Dir Wind Speed Gust Speed Precip Events Conditions
12:15 AM 26.6 °F 18.2 °F 14.0 °F 59% 29.68 in 10.0 mi NE 8.1 mph - N/A   Overcast
12:35 AM 28.4 °F 19.1 °F 12.2 °F 51% 29.69 in 10.0 mi NE 10.4 mph - N/A   Overcast
12:55 AM 26.6 °F 14.3 °F 10.4 °F 51% 29.69 in 10.0 mi NNE 16.1 mph 21.9 mph N/A   Overcast
1:15 AM 26.6 °F 13.8 °F 10.4 °F 51% 29.71 in 10.0 mi NE 17.3 mph 21.9 mph N/A   Overcast
1:35 AM 26.6 °F 13.8 °F 10.4 °F 51% 29.72 in 10.0 mi NNE 17.3 mph - N/A   Overcast
1:55 AM 26.6 °F 16.2 °F 10.4 °F 51% 29.74 in 10.0 mi NE 11.5 mph - N/A   Overcast
2:15 AM 26.6 °F 16.2 °F 10.4 °F 51% 29.75 in 10.0 mi NE 11.5 mph - N/A   Overcast
2:35 AM 26.6 °F 16.2 °F 10.4 °F 51% 29.74 in 10.0 mi NE 11.5 mph 23.0 mph N/A   Overcast
2:55 AM 26.6 °F 16.8 °F 8.6 °F 47% 29.74 in 10.0 mi NE 10.4 mph - N/A   Overcast
3:15 AM 24.8 °F 13.4 °F 8.6 °F 50% 29.74 in 10.0 mi NNE 12.7 mph - N/A   Overcast
3:35 AM 26.6 °F 16.2 °F 8.6 °F 47% 29.74 in 10.0 mi NE 11.5 mph 16.1 mph N/A   Overcast
3:55 AM 26.6 °F 19.1 °F 8.6 °F 47% 29.75 in 10.0 mi NE 6.9 mph - N/A   Overcast
4:15 AM 26.6 °F 19.1 °F 8.6 °F 47% 29.75 in 10.0 mi NE 6.9 mph - N/A   Overcast
4:35 AM 26.6 °F 21.2 °F 8.6 °F 47% 29.76 in 10.0 mi NNE 4.6 mph - N/A   Overcast
4:55 AM 26.6 °F 20.0 °F 8.6 °F 47% 29.77 in 10.0 mi NNE 5.8 mph - N/A   Overcast
5:15 AM 26.6 °F 20.0 °F 8.6 °F 47% 29.78 in 10.0 mi NNE 5.8 mph 10.4 mph N/A   Overcast
5:35 AM 26.6 °F 19.1 °F 6.8 °F 43% 29.79 in 10.0 mi ENE 6.9 mph - N/A   Overcast
5:55 AM 24.8 °F 15.3 °F 5.0 °F 43% 29.79 in 10.0 mi NE 9.2 mph - N/A   Overcast
6:15 AM 23.0 °F 11.1 °F 5.0 °F 46% 29.80 in 10.0 mi NNE 12.7 mph 17.3 mph N/A   Overcast
6:35 AM 23.0 °F 13.1 °F 5.0 °F 46% 29.82 in 10.0 mi NE 9.2 mph - N/A   Overcast
6:55 AM 23.0 °F 8.7 °F 5.0 °F 46% 29.83 in 10.0 mi NE 18.4 mph 23.0 mph N/A   Overcast
7:15 AM 23.0 °F 7.6 °F 8.6 °F 54% 29.85 in 10.0 mi ENE 21.9 mph 28.8 mph N/A   Overcast
7:35 AM 23.0 °F 9.2 °F 10.4 °F 59% 29.86 in 10.0 mi NNE 17.3 mph 21.9 mph N/A   Overcast
7:55 AM 23.0 °F 10.6 °F 6.8 °F 50% 29.87 in 10.0 mi NNE 13.8 mph - N/A   Overcast
8:15 AM 24.8 °F 14.6 °F 5.0 °F 43% 29.88 in 10.0 mi NE 10.4 mph - N/A   Overcast
8:35 AM 24.8 °F 16.1 °F 3.2 °F 40% 29.89 in 10.0 mi NE 8.1 mph - N/A   Overcast
8:55 AM 24.8 °F 13.4 °F 3.2 °F 40% 29.90 in 10.0 mi NE 12.7 mph - N/A   Overcast
9:15 AM 24.8 °F 16.9 °F 6.8 °F 46% 29.90 in 10.0 mi NE 6.9 mph - N/A   Overcast
9:35 AM 26.6 °F 16.8 °F 5.0 °F 40% 29.90 in 10.0 mi NE 10.4 mph - N/A   Overcast
9:55 AM 28.4 °F 20.4 °F 5.0 °F 37% 29.90 in 10.0 mi NE 8.1 mph 16.1 mph N/A   Overcast
10:15 AM 28.4 °F 22.2 °F 5.0 °F 37% 29.91 in 10.0 mi NE 5.8 mph 16.1 mph N/A   Overcast
10:35 AM 30.2 °F 21.3 °F 5.0 °F 34% 29.91 in 10.0 mi NNE 10.4 mph 19.6 mph N/A   Mostly Cloudy
10:55 AM 30.2 °F 19.8 °F 8.6 °F 40% 29.90 in 10.0 mi NE 13.8 mph 23.0 mph N/A   Scattered Clouds
11:15 AM 32.0 °F 22.1 °F 8.6 °F 38% 29.91 in 10.0 mi NNE 13.8 mph 21.9 mph N/A   Clear
11:35 AM 32.0 °F 21.6 °F 8.6 °F 38% 29.92 in 10.0 mi ENE 15.0 mph 20.7 mph N/A   Scattered Clouds
11:55 AM 32.0 °F 22.1 °F 8.6 °F 38% 29.93 in 10.0 mi NE 13.8 mph 18.4 mph N/A   Scattered Clouds
12:15 PM 32.0 °F 22.1 °F 8.6 °F 38% 29.93 in 10.0 mi ENE 13.8 mph 17.3 mph N/A   Mostly Cloudy
12:35 PM 32.0 °F 23.0 °F 8.6 °F 38% 29.93 in 10.0 mi ENE 11.5 mph 17.3 mph N/A   Overcast
12:55 PM 33.8 °F 24.3 °F 10.4 °F 38% 29.93 in 10.0 mi NE 13.8 mph 21.9 mph N/A   Overcast
1:15 PM 32.0 °F 21.6 °F 10.4 °F 41% 29.92 in 10.0 mi NNE 15.0 mph 19.6 mph N/A   Overcast
1:35 PM 32.0 °F 22.1 °F 8.6 °F 38% 29.92 in 10.0 mi NE 13.8 mph 18.4 mph N/A   Mostly Cloudy
1:55 PM 33.8 °F 26.4 °F 10.4 °F 38% 29.92 in 10.0 mi East 9.2 mph - N/A   Scattered Clouds
2:15 PM 33.8 °F 25.3 °F 8.6 °F 35% 29.91 in 10.0 mi NE 11.5 mph - N/A   Clear
2:35 PM 35.6 °F 29.9 °F 10.4 °F 35% 29.92 in 10.0 mi ENE 6.9 mph 23.0 mph N/A   Clear
2:55 PM 33.8 °F 24.3 °F 10.4 °F 38% 29.92 in 10.0 mi ENE 13.8 mph 20.7 mph N/A   Scattered Clouds
3:15 PM 33.8 °F 23.9 °F 17.6 °F 52% 29.92 in 10.0 mi SE 15.0 mph 20.7 mph N/A   Mostly Cloudy
3:35 PM 32.0 °F 27.5 °F 15.8 °F 51% 29.93 in 10.0 mi East 4.6 mph - N/A   Mostly Cloudy
3:55 PM 32.0 °F 22.5 °F 15.8 °F 51% 29.93 in 10.0 mi East 12.7 mph 19.6 mph N/A   Overcast
4:15 PM 33.8 °F 25.3 °F 12.2 °F 41% 29.94 in 10.0 mi ENE 11.5 mph - N/A   Overcast
4:35 PM 32.0 °F 23.0 °F 10.4 °F 41% 29.95 in 10.0 mi ENE 11.5 mph - N/A   Overcast
4:55 PM 32.0 °F 23.0 °F 14.0 °F 48% 29.95 in 10.0 mi ESE 11.5 mph - N/A   Overcast
5:15 PM 32.0 °F 22.5 °F 15.8 °F 51% 29.97 in 10.0 mi ESE 12.7 mph - N/A   Overcast
5:35 PM 32.0 °F 21.6 °F 12.2 °F 44% 29.98 in 10.0 mi East 15.0 mph 18.4 mph N/A   Overcast
5:55 PM 32.0 °F 23.6 °F 14.0 °F 48% 29.98 in 10.0 mi ESE 10.4 mph - N/A   Overcast
6:15 PM 30.2 °F 22.6 °F 10.4 °F 44% 29.99 in 10.0 mi ESE 8.1 mph - N/A   Overcast
6:35 PM 32.0 °F 23.6 °F 10.4 °F 41% 29.99 in 10.0 mi ENE 10.4 mph - N/A   Overcast
6:55 PM 32.0 °F 24.2 °F 12.2 °F 44% 29.99 in 10.0 mi NE 9.2 mph - N/A   Overcast
7:15 PM 32.0 °F 27.5 °F 14.0 °F 48% 30.00 in 10.0 mi East 4.6 mph 9.2 mph N/A   Overcast
7:35 PM 30.2 °F 22.6 °F 12.2 °F 47% 30.01 in 10.0 mi East 8.1 mph - N/A   Overcast
7:55 PM 28.4 °F 16.6 °F 21.2 °F 74% 30.01 in 10.0 mi South 16.1 mph 23.0 mph N/A   Overcast
8:15 PM 26.6 °F 15.7 °F 23.0 °F 86% 30.02 in 10.0 mi South 12.7 mph 16.1 mph N/A   Overcast
8:55 PM 26.6 °F 19.1 °F 23.0 °F 86% 30.05 in 10.0 mi SSW 6.9 mph - N/A   Overcast
9:15 PM 26.6 °F 19.1 °F 21.2 °F 80% 30.05 in 10.0 mi SW 6.9 mph - N/A   Overcast
9:35 PM 24.8 °F 17.9 °F 21.2 °F 86% 30.06 in 10.0 mi SW 5.8 mph - N/A   Scattered Clouds
9:55 PM 23.0 °F 14.7 °F 21.2 °F 93% 30.06 in 10.0 mi SW 6.9 mph - N/A   Clear
10:15 PM 23.0 °F 13.9 °F 21.2 °F 93% 30.07 in 10.0 mi WSW 8.1 mph - N/A   Mostly Cloudy
10:35 PM 23.0 °F 18.4 °F 21.2 °F 93% 30.07 in 10.0 mi SW 3.5 mph - N/A   Overcast
11:15 PM 21.2 °F - 19.4 °F 93% 30.08 in 10.0 mi Calm Calm - N/A   Mostly Cloudy
11:35 PM 21.2 °F 14.9 °F 19.4 °F 93% 30.08 in 10.0 mi SSW 4.6 mph - N/A   Mostly Cloudy
11:55 PM 21.2 °F 16.4 °F 19.4 °F 93% 30.08 in 10.0 mi South 3.5 mph - N/A   Overcast